(188491) = 2004 PR34

Discovered at Anderson Mesa on 2004-08-08 by LONEOS.

Orbit

Orbit type: Main Belt

Note: WebGL enabled browser required.

epoch2023-09-13.0
epoch JD2460200.5
perihelion date2022-11-20.22727
perihelion JD2459903.72727
argument of perihelion (°)166.05566
ascending node (°)137.92537
inclination (°)10.06580
eccentricity0.1359495
perihelion distance (AU)2.4025861
Tisserand w.r.t. Jupiter3.3
ΔV w.r.t. Earth (km/sec)10.2
semimajor axis (AU)2.7806083
mean anomaly (°)63.08384
mean daily motion (°/day)0.21256620
aphelion distance (AU)3.159
period (years)4.64
P-vector [x]0.56140390
P-vector [y]-0.77502450
P-vector [z]-0.29010805
Q-vector [x]0.81921229
Q-vector [y]0.57009826
Q-vector [z]0.06228320
absolute magnitude16.19
phase slope0.15
uncertainty0
referenceMPEC 2023-Y111
observations used395
oppositions16
arc length (days)11297
first opposition used1993
last opposition used2023
residual rms (arc-secs)0.70
perturbers coarse indicatorM-v
perturbers precise indicator003Ek
first observation date used1993-01-24.0
last observation date used2023-12-30.0
computer nameMPCLINUX
JD of orbit computation2456937.366110
perihelion JD uncertainty (days)7.5269E-05
argument of perihelion uncertainty (°)3.1711E-05
ascending node uncertainty (°)2.6256E-05
inclination uncertainty (°)5.2731E-06
eccentricity uncertainty 5.1007E-08
perihelion distance uncertainty (AU)1.3889E-07
Minimum Orbit Intersection Distances (in AU)
for orbit epoch: 2460200.5, reference: E2023-YB1
Mercury1.96847
Venus1.678
Earth1.38835
Mars1.01004
Jupiter2.09691
Saturn5.95223
Uranus15.3604
Neptune26.9834

Observations

400 total observations over interval: 1993 01 24.49842 – 2023 12 30.257149
These data are available for download (format description).

Date (UT) J2000 RA J2000 Dec Magn Location Ref
1993 01 24.49842 10 01 54.62 +12 43 09.5   691 – Steward Observatory, Kitt Peak-Spacewatch MPS 203032
1993 01 24.50794 10 01 54.21 +12 43 13.4   691 – Steward Observatory, Kitt Peak-Spacewatch MPS 203032
1993 01 24.51594 10 01 53.86 +12 43 15.9 21.5 V 691 – Steward Observatory, Kitt Peak-Spacewatch MPS 203032
2004 08 08.33182 22 40 20.47 -11 43 07.4 19.1 R 699 – Lowell Observatory-LONEOS MPS 111216
2004 08 08.34481 22 40 20.06 -11 43 13.2   699 – Lowell Observatory-LONEOS MPS 111216
2004 08 08.35778 22 40 19.48 -11 43 20.7   699 – Lowell Observatory-LONEOS MPS 111216
2004 08 08.37075 22 40 19.12 -11 43 25.8   699 – Lowell Observatory-LONEOS MPS 111216
2004 08 10.22597 22 39 16.87 -12 00 13.5 19.3   704 – Lincoln Laboratory ETS, New Mexico MPS 111216
2004 08 10.23667 22 39 16.41 -12 00 18.5 19.2   704 – Lincoln Laboratory ETS, New Mexico MPS 111216
2004 08 10.25162 22 39 15.87 -12 00 26.5 19.9   704 – Lincoln Laboratory ETS, New Mexico MPS 111216
2004 08 10.27302 22 39 15.13 -12 00 38.5 19.6   704 – Lincoln Laboratory ETS, New Mexico MPS 111216
2004 08 12.25372 22 38 04.28 -12 18 51.2 19.7   704 – Lincoln Laboratory ETS, New Mexico MPS 111216
2004 08 12.26349 22 38 03.95 -12 18 56.7 19.5   704 – Lincoln Laboratory ETS, New Mexico MPS 111216
2004 08 12.27327 22 38 03.52 -12 19 01.3 20.0   704 – Lincoln Laboratory ETS, New Mexico MPS 111216
2004 09 07.23308 22 19 49.01 -16 13 42.2 19.0   704 – Lincoln Laboratory ETS, New Mexico MPS 155915
2004 09 07.24411 22 19 48.52 -16 13 46.8 19.2   704 – Lincoln Laboratory ETS, New Mexico MPS 155915
2004 09 07.25514 22 19 48.09 -16 13 52.4 19.5   704 – Lincoln Laboratory ETS, New Mexico MPS 155915
2004 09 07.26627 22 19 47.62 -16 13 58.5 19.8   704 – Lincoln Laboratory ETS, New Mexico MPS 155915
2004 09 07.27730 22 19 47.10 -16 14 03.4 19.7   704 – Lincoln Laboratory ETS, New Mexico MPS 155915
2004 09 12.17117 22 16 38.66 -16 50 11.9 19.1 C 704 – Lincoln Laboratory ETS, New Mexico MPS 291412
2004 09 12.18234 22 16 38.29 -16 50 16.7 19.0 C 704 – Lincoln Laboratory ETS, New Mexico MPS 291412
2004 09 12.21597 22 16 36.93 -16 50 30.1 19.0 C 704 – Lincoln Laboratory ETS, New Mexico MPS 291412
2004 09 17.17265 22 13 49.46 -17 22 30.5 19.0   704 – Lincoln Laboratory ETS, New Mexico MPS 155915
2004 09 17.20848 22 13 48.30 -17 22 43.2 19.8   704 – Lincoln Laboratory ETS, New Mexico MPS 155915
2004 09 17.22050 22 13 47.87 -17 22 47.5 19.6   704 – Lincoln Laboratory ETS, New Mexico MPS 155915
2004 09 17.22966 22 13 47.53 -17 22 50.8 19.2 R 699 – Lowell Observatory-LONEOS MPS 155915
2004 09 17.24183 22 13 47.13 -17 22 54.2   699 – Lowell Observatory-LONEOS MPS 155915
2004 09 17.25400 22 13 46.74 -17 23 01.4   699 – Lowell Observatory-LONEOS MPS 155915
2004 09 17.26615 22 13 46.43 -17 23 04.4   699 – Lowell Observatory-LONEOS MPS 155915
2007 01 27.47594 10 36 08.81 +11 19 57.4 21.2 V 691 – Steward Observatory, Kitt Peak-Spacewatch MPS 203032
2007 01 27.49427 10 36 08.19 +11 20 03.7 20.9 V 691 – Steward Observatory, Kitt Peak-Spacewatch MPS 203032
2007 01 27.51236 10 36 07.57 +11 20 10.7 21.1 V 691 – Steward Observatory, Kitt Peak-Spacewatch MPS 203032
2007 03 10.17979 10 05 21.95 +16 08 51.6 20.9 V 691 – Steward Observatory, Kitt Peak-Spacewatch MPS 203032
2007 03 10.19358 10 05 21.35 +16 08 56.2 21.1 V 691 – Steward Observatory, Kitt Peak-Spacewatch MPS 203032
2007 03 10.20737 10 05 20.70 +16 09 01.0 21.1 V 691 – Steward Observatory, Kitt Peak-Spacewatch MPS 203032
2007 03 15.12320 10 01 59.47 +16 36 28.2 21.1 V 691 – Steward Observatory, Kitt Peak-Spacewatch MPS 203032
2007 03 15.14745 10 01 58.52 +16 36 36.2 21.2 V 691 – Steward Observatory, Kitt Peak-Spacewatch MPS 203032
2007 03 15.17177 10 01 57.56 +16 36 44.0 21.3 V 691 – Steward Observatory, Kitt Peak-Spacewatch MPS 203032
2007 03 17.12150 10 00 43.81 +16 46 43.2   691 – Steward Observatory, Kitt Peak-Spacewatch MPS 204576
2007 03 17.14305 10 00 43.04 +16 46 49.8   691 – Steward Observatory, Kitt Peak-Spacewatch MPS 204576
2007 03 17.16543 10 00 42.14 +16 46 56.0   691 – Steward Observatory, Kitt Peak-Spacewatch MPS 204576
2007 03 20.12781 09 58 57.74 +17 01 04.2 21.6 V 691 – Steward Observatory, Kitt Peak-Spacewatch MPS 204576
2007 03 20.14390 09 58 57.17 +17 01 08.6 21.2 V 691 – Steward Observatory, Kitt Peak-Spacewatch MPS 204576
2007 03 20.15999 09 58 56.57 +17 01 13.2 21.4 V 691 – Steward Observatory, Kitt Peak-Spacewatch MPS 204576
2008 04 13.47494 16 47 50.31 -07 59 50.7 19.3 V G96 – Mt. Lemmon Survey MPS 246739
2008 04 13.48050 16 47 50.31 -07 59 49.4 19.2 V G96 – Mt. Lemmon Survey MPS 246739
2008 04 13.48596 16 47 50.31 -07 59 48.4 19.6 V G96 – Mt. Lemmon Survey MPS 246739
2008 04 13.49162 16 47 50.24 -07 59 46.3 19.6 V G96 – Mt. Lemmon Survey MPS 246739
2008 04 30.37043 16 43 39.75 -06 47 23.5 19.5 V G96 – Mt. Lemmon Survey MPS 248118
2008 04 30.37702 16 43 39.54 -06 47 21.8 19.4 V G96 – Mt. Lemmon Survey MPS 248118
2008 04 30.38353 16 43 39.36 -06 47 20.1 19.6 V G96 – Mt. Lemmon Survey MPS 248118
2008 04 30.39025 16 43 39.14 -06 47 18.6 19.5 V G96 – Mt. Lemmon Survey MPS 248118
2008 05 26.33458 16 25 17.03 -05 32 02.6 19.6 V 691 – Steward Observatory, Kitt Peak-Spacewatch MPS 250413
2008 05 26.35214 16 25 16.11 -05 32 01.0 19.7 V 691 – Steward Observatory, Kitt Peak-Spacewatch MPS 250413
2008 05 26.36972 16 25 15.18 -05 31 59.5 20.6 V 691 – Steward Observatory, Kitt Peak-Spacewatch MPS 250413
2008 05 30.40693 16 21 45.47 -05 28 04.7 19.5 V 691 – Steward Observatory, Kitt Peak-Spacewatch MPS 250413
2008 05 30.42453 16 21 44.53 -05 28 03.9 19.6 V 691 – Steward Observatory, Kitt Peak-Spacewatch MPS 250413
2008 05 30.44212 16 21 43.59 -05 28 03.0 19.6 V 691 – Steward Observatory, Kitt Peak-Spacewatch MPS 250413
2008 06 11.36726 16 11 45.16 -05 32 30.2 19.6 V 691 – Steward Observatory, Kitt Peak-Spacewatch MPS 251380
2008 06 11.38495 16 11 44.32 -05 32 31.1 19.7 V 691 – Steward Observatory, Kitt Peak-Spacewatch MPS 251380
2008 06 11.40262 16 11 43.49 -05 32 33.2 20.0 V 691 – Steward Observatory, Kitt Peak-Spacewatch MPS 251380
2008 06 24.25347 16 03 04.47 -06 04 31.7   691 – Steward Observatory, Kitt Peak-Spacewatch MPS 252005
2008 06 24.26946 16 03 03.91 -06 04 34.8   691 – Steward Observatory, Kitt Peak-Spacewatch MPS 252005
2008 06 24.28544 16 03 03.35 -06 04 38.6   691 – Steward Observatory, Kitt Peak-Spacewatch MPS 252005
2008 06 30.25630 16 00 12.09 -06 28 20.8   691 – Steward Observatory, Kitt Peak-Spacewatch MPS 252419
2008 06 30.26711 16 00 11.82 -06 28 23.7   691 – Steward Observatory, Kitt Peak-Spacewatch MPS 252419
2008 06 30.27792 16 00 11.53 -06 28 26.6   691 – Steward Observatory, Kitt Peak-Spacewatch MPS 252419
2009 10 15.27862 01 35 14.49 -05 28 45.0 20.0 V 703 – Catalina Sky Survey MPS 300462
2009 10 15.28661 01 35 14.10 -05 28 47.1 19.5 V 703 – Catalina Sky Survey MPS 300462
2009 10 15.29458 01 35 13.77 -05 28 52.0 20.3 V 703 – Catalina Sky Survey MPS 300462
2009 10 15.30252 01 35 13.34 -05 28 55.3 19.4 V 703 – Catalina Sky Survey MPS 300462
2010 12 11.32962 07 32 33.67 +13 29 21.4 21.1 V 691 – Steward Observatory, Kitt Peak-Spacewatch MPS 362401
2010 12 11.34741 07 32 33.07 +13 29 23.6 20.9 V 691 – Steward Observatory, Kitt Peak-Spacewatch MPS 362401
2010 12 11.36520 07 32 32.32 +13 29 25.2 21.4 V 691 – Steward Observatory, Kitt Peak-Spacewatch MPS 362401
2012 03 15.41127 12 22 10.02 +08 34 14.6 20.4 V G96 – Mt. Lemmon Survey MPS 417004
2012 03 15.41873 12 22 09.66 +08 34 18.1 20.1 V G96 – Mt. Lemmon Survey MPS 417004
2012 03 15.42629 12 22 09.33 +08 34 22.0 20.2 V G96 – Mt. Lemmon Survey MPS 417004
2012 03 15.43376 12 22 09.01 +08 34 25.5 20.4 V G96 – Mt. Lemmon Survey MPS 417004
2012 03 21.51254 12 17 32.772 +09 21 54.00 20.7 g F51 – Pan-STARRS 1, Haleakala MPS 418222
2012 03 21.52379 12 17 32.233 +09 21 59.07 20.7 g F51 – Pan-STARRS 1, Haleakala MPS 418222
2012 03 28.32121 12 12 14.54 +10 11 20.1 19.8 R H15 – ISON-NM Observatory, Mayhill MPS 419970
2012 03 28.33510 12 12 13.88 +10 11 26.3 20.0 R H15 – ISON-NM Observatory, Mayhill MPS 419970
2012 03 28.35335 12 12 13.03 +10 11 32.3 19.8 R H15 – ISON-NM Observatory, Mayhill MPS 419970
2012 03 28.36815 12 12 12.42 +10 11 39.1 20.1 R H15 – ISON-NM Observatory, Mayhill MPS 419970
